Location: Melbourne
(37.8170°S, 144.9670°E)
Time: 00:04:11
(UTC+10:00)

ISS - All Passes

Search period start: 29 May 2015 00:00
Search period end: 08 June 2015 00:00
Orbit: 399 x 404 km, 51.6° (Epoch: 28 May)

Date Brightness Start Highest point End Pass type
(mag) Time Alt. Az. Time Alt. Az. Time Alt. Az.
29 May - 09:08:41 10° NNE 09:10:26 14° NE 09:12:18 10° E daylight
29 May - 10:43:19 10° WNW 10:46:34 53° SW 10:49:51 10° SE daylight
29 May - 12:22:10 10° SW 12:23:37 12° SSW 12:25:03 10° S daylight
29 May - 15:36:52 10° SSW 15:38:54 15° SSE 15:40:57 10° ESE daylight
29 May - 17:12:26 10° SW 17:15:45 88° SE 17:19:02 10° NE daylight
30 May - 09:50:01 10° NW 09:53:19 74° NE 09:56:39 10° SE daylight
30 May - 11:27:47 10° WSW 11:30:05 17° SSW 11:32:21 10° SSE daylight
30 May - 14:44:17 10° S 14:45:19 11° SSE 14:46:25 10° SE daylight
30 May - 16:19:16 10° SW 16:22:28 43° SE 16:25:38 10° ENE daylight
30 May - 17:56:23 10° W 17:58:40 17° NW 18:00:51 10° N visible
31 May - 08:57:08 10° NNW 09:00:08 33° NE 09:03:12 10° ESE daylight
31 May - 10:33:45 10° W 10:36:36 26° SSW 10:39:28 10° SSE daylight
31 May - 15:26:15 10° SSW 15:29:04 25° SSE 15:31:53 10° E daylight
31 May - 17:02:29 10° WSW 17:05:34 35° NW 17:08:34 10° NNE daylight
01 Jun - 08:04:53 10° N 08:07:01 17° NE 08:09:15 10° E daylight
01 Jun - 09:40:01 10° WNW 09:43:12 45° SW 09:46:26 10° SE daylight
01 Jun - 11:19:08 10° SW 11:20:20 11° SSW 11:21:29 10° S daylight
01 Jun - 14:33:22 10° SSW 14:35:35 17° SSE 14:37:49 10° ESE daylight
01 Jun - 16:09:03 10° SW 16:12:22 77° NW 16:15:38 10° NE daylight
02 Jun - 08:46:35 10° NW 08:49:54 88° ENE 08:53:15 10° SE daylight
02 Jun - 10:24:36 10° WSW 10:26:44 16° SSW 10:28:50 10° SSE daylight
02 Jun - 13:40:40 10° S 13:42:00 12° SSE 13:43:23 10° SE daylight
02 Jun - 15:15:49 10° SW 15:19:04 50° SE 15:22:17 10° ENE daylight
02 Jun - 16:53:17 10° W 16:55:12 14° NW 16:57:02 10° NNW daylight
03 Jun - 07:53:33 10° NNW 07:56:40 40° NE 07:59:49 10° ESE daylight
03 Jun - 09:30:28 10° W 09:33:12 23° SSW 09:35:57 10° SSE daylight
03 Jun - 14:22:44 10° SSW 14:25:40 28° SSE 14:28:35 10° E daylight
03 Jun - 15:59:08 10° WSW 16:02:04 29° NW 16:04:58 10° NNE daylight
04 Jun - 07:01:04 10° N 07:03:30 20° NE 07:06:01 10° E visible
04 Jun - 08:36:37 10° WNW 08:39:45 39° SW 08:42:54 10° SE daylight
04 Jun - 10:16:04 10° SSW 10:16:56 11° SSW 10:17:45 10° S daylight
04 Jun - 13:29:47 10° SSW 13:32:09 18° SSE 13:34:34 10° ESE daylight
04 Jun - 15:05:35 10° SW 15:08:52 64° NW 15:12:07 10° NE daylight
05 Jun - 07:43:05 10° NW 07:46:23 77° SW 07:49:44 10° SE daylight
05 Jun - 09:21:21 10° WSW 09:23:18 14° SSW 09:25:13 10° SSE daylight
05 Jun - 12:36:58 10° S 12:38:34 13° SSE 12:40:12 10° SE daylight
05 Jun - 14:12:16 10° SW 14:15:35 60° SE 14:18:50 10° ENE daylight
05 Jun - 15:50:13 10° WNW 15:51:39 12° NW 15:52:58 10° NNW daylight
06 Jun - 06:49:55 10° NNW 06:53:07 48° NE 06:56:21 10° ESE visible
06 Jun - 08:27:06 10° W 08:29:43 21° SSW 08:32:20 10° SSE daylight
06 Jun - 13:19:08 10° SSW 13:22:09 32° SSE 13:25:11 10° E daylight
06 Jun - 14:55:42 10° WSW 14:58:30 25° NW 15:01:13 10° N daylight
07 Jun - 05:57:15 10° N 05:59:54 23° NE 06:02:38 10° ESE visible
07 Jun - 07:33:09 10° W 07:36:13 34° SSW 07:39:18 10° SE daylight
07 Jun - 09:13:08 10° SSW 09:13:27 10° SSW 09:13:43 10° S daylight
07 Jun - 12:26:06 10° SSW 12:28:39 20° SSE 12:31:12 10° ESE daylight
07 Jun - 14:02:02 10° WSW 14:05:17 53° NW 14:08:29 10° NE daylight
